User: anonymous   Login
Location: Okie-Tex Star Party
(36.8978°N, 102.9520°W)
Time: 10:12:08
(UTC-06:00)
Language:

Hamsat - Orbit

View from above orbital plane
View from above orbital plane
View from above satellite
View from above satellite

Ground track
Ground track

The orbit data is extracted from the following two-line orbital elements,

1 28650U 05017B   15027.05118664  .00001600  00000-0  18499-3 0  9665
2 28650 097.5678 026.0426 0025814 136.5272 223.7986 14.86657531526478
Epoch (UTC): 27 January 2015 01:13:42
Eccentricity: 0.0025814
inclination: 97.5678°
perigee height: 590 km
apogee height: 626 km
right ascension of ascending node: 26.0426°
argument of perigee: 136.5272°
revolutions per day: 14.86657531
mean anomaly at epoch: 223.7986°
orbit number at epoch: 52647

The dashed part of the orbit path shows where the satellite is in the earth's shadow,  

DLR